Location: Unspecified
(0.0000°N, 0.0000°E)
Time: 20:14:49
(UTC+00:00)

Tiros 1 - Pass Details

Date: 24 October 2021
Orbit: 630 x 664 km, 48.4° (Epoch: 04 December)

Event Time Altitude Azimuth Distance (km) Brightness Sun altitude
Rises 19:20:03 0° 305° (NW) 2,904 11.1 -23.4°
Reaches altitude 10° 19:22:32 10° 296° (WNW) 1,997 10.3 -24.0°
Maximum altitude 19:26:40 33° 231° (SW) 1,047 8.7 -25.0°
Enters shadow 19:30:30 12° 168° (SSE) 1,885 9.5 -26.0°
Drops below altitude 10° 19:30:50 10° 166° (SSE) 2,003 - -26.0°
Sets 19:33:20 0° 157° (SSE) 2,914 - -26.7°
